Seeley, CA

11:24 PM PST on December 02, 2016 (GMT -0800)
El Centro Naval Air Facility

Weather History for KNJK - January, 2014

Change the Weather History Date:

Monday, January 27, 2014

  Actual Average Record
Temperature  
Mean Temperature 67 °F -  
Max Temperature 80 °F 69 °F 80 °F (2003)
Min Temperature 54 °F 45 °F 39 °F (2004)
Cooling Degree Days 2    
Growing Degree Days 17 (Base 50)    
Moisture  
Dew Point 40 °F    
Average Humidity 41    
Maximum Humidity 67    
Minimum Humidity 17    
Precipitation  
Precipitation 0.00 in - - ()
Sea Level Pressure  
Sea Level Pressure 30.01 in    
Wind  
Wind Speed 5 mph (WNW)    
Max Wind Speed 9 mph    
Max Gust Speed -    
Visibility 10 miles    
Events      
Averages and records for this station are not official NWS values.
T = Trace of Precipitation, MM = Missing Value Source: NWS Daily Summary

Daily Weather History Graph

Daily Weather History Graph

Search for Another Location

Airport or City:

Trip Planner

Search our weather history database for the weather conditions in past years. The results will help you decide how hot, cold, wet, or windy it might be!

Date:

Astronomy

Jan. 27, 2014 Rise Set
Actual Time 6:40 AM PST 5:10 PM PST
Civil Twilight 6:14 AM PST 5:36 PM PST
Nautical Twilight 5:44 AM PST 6:06 PM PST
Astronomical Twilight 5:15 AM PST 6:35 PM PST
Moon 3:24 AM PST (1/27) 2:03 PM PST (1/27)
Length of Visible Light 11h 22m
Length of Day
10h 30m
Waning Crescent, 14% of the Moon is Illuminated
Jan 27
Waning Crescent
Jan 30
New
Feb 6
First Quarter
Feb 14
Full
Feb 22
Last Quarter

Hourly Weather History & Observations

Time (PST) Temp. Dew Point Humidity Pressure Visibility Wind Dir Wind Speed Gust Speed Precip Events Conditions
12:56 AM 66.9 °F 48.9 °F 52% 29.99 in 10.0 mi West 8.1 mph - N/A   Overcast
1:56 AM 64.9 °F 46.9 °F 52% 30.00 in 10.0 mi WNW 5.8 mph - 0.00 in   Mostly Cloudy
2:56 AM 63.0 °F 46.0 °F 54% 30.00 in 10.0 mi West 5.8 mph - N/A   Clear
3:56 AM 61.0 °F 46.0 °F 58% 30.00 in 10.0 mi West 5.8 mph - N/A   Scattered Clouds
4:56 AM 60.1 °F 46.9 °F 62% 29.99 in 10.0 mi West 3.5 mph - N/A   Clear
5:56 AM 59.0 °F 48.0 °F 67% 30.00 in 10.0 mi Calm Calm - N/A   Partly Cloudy
6:56 AM 54.0 °F 42.1 °F 64% 30.03 in 10.0 mi NW 5.8 mph - N/A   Partly Cloudy
7:56 AM 62.1 °F 46.9 °F 58% 30.03 in 10.0 mi WSW 3.5 mph - N/A   Partly Cloudy
8:56 AM 66.9 °F 50.0 °F 54% 30.05 in 10.0 mi West 4.6 mph - N/A   Partly Cloudy
9:56 AM 71.1 °F 46.9 °F 42% 30.08 in 10.0 mi North 8.1 mph - N/A   Partly Cloudy
10:56 AM 73.9 °F 46.0 °F 37% 30.06 in 10.0 mi NNW 8.1 mph - N/A   Partly Cloudy
11:56 AM 77.0 °F 42.1 °F 29% 30.03 in 10.0 mi NNW 8.1 mph - N/A   Scattered Clouds
12:56 PM 78.1 °F 37.9 °F 24% 29.99 in 10.0 mi NNW 4.6 mph - N/A   Partly Cloudy
1:56 PM 80.6 °F 33.8 °F 18% 29.98 in 10.0 mi NW 9.2 mph - N/A   Scattered Clouds
2:56 PM 79.0 °F 30.0 °F 17% 29.97 in 10.0 mi NW 5.8 mph - N/A   Scattered Clouds
3:56 PM 80.1 °F 30.9 °F 17% 29.96 in 10.0 mi NE 5.8 mph - N/A   Scattered Clouds
4:56 PM 75.9 °F 34.0 °F 22% 29.97 in 10.0 mi Calm Calm - N/A   Scattered Clouds
5:56 PM 72.0 °F 35.1 °F 26% 29.99 in 10.0 mi Calm Calm - N/A   Scattered Clouds
6:56 PM 66.0 °F 34.0 °F 30% 30.01 in 10.0 mi SSW 4.6 mph - N/A   Scattered Clouds
7:56 PM 57.9 °F 36.0 °F 44% 30.02 in 10.0 mi Calm Calm - N/A   Scattered Clouds
8:56 PM 63.0 °F 35.1 °F 35% 30.03 in 10.0 mi Calm Calm - N/A   Scattered Clouds
9:56 PM 60.1 °F 33.1 °F 36% 30.04 in 10.0 mi WSW 4.6 mph - N/A   Scattered Clouds
10:56 PM 55.9 °F 36.0 °F 47% 30.03 in 10.0 mi WSW 4.6 mph - N/A   Partly Cloudy
11:56 PM 54.0 °F 34.0 °F 47% 30.04 in 10.0 mi West 5.8 mph - N/A   Clear